Vorticity
nan nan nan nan nan nan nan nan nan nan nan nan nan nan nan nan nan nan nan nan nan nan nan nan nan nan nan nan nan nan nan nan nan nan nan nan nan nan nan nan nan nan nan nan nan
nan 7 7 7 7 6 6 7 7 7 7 7 7 7 6 13 18 7 12 9 6 7 5 7 7 8 7 7 7 6 9 10 4 4 1 8 16 11 10 3 6 12 14 11 nan
nan 7 7 7 7 7 7 7 7 7 7 7 7 7 8 14 14 13 18 11 9 4 5 7 8 8 7 7 7 9 9 9 7 2 4 17 12 6 8 5 12 6 3 4 nan
nan 7 7 8 7 7 7 7 7 7 8 8 8 8 15 15 5 12 21 15 4 5 6 7 7 7 9 8 7 7 10 10 9 3 7 6 3 13 3 11 16 9 4 4 nan
nan 7 8 8 7 8 7 6 7 8 9 9 8 11 15 11 8 12 13 9 6 6 7 6 6 9 9 8 7 8 9 12 8 3 3 6 12 13 13 15 9 7 6 3 nan
nan 8 8 8 7 7 7 7 7 9 10 9 8 11 12 7 16 10 5 4 5 7 8 5 6 7 8 8 8 13 12 9 6 4 4 9 13 15 17 12 9 5 4 2 nan
nan 8 7 7 8 8 8 7 9 11 11 11 10 9 8 7 9 10 5 4 6 6 5 6 6 7 9 6 13 6 6 9 6 7 7 6 10 8 11 12 6 3 4 4 nan
nan 7 7 7 8 8 8 8 11 14 14 12 10 10 4 7 8 7 5 7 10 6 4 7 8 9 8 5 6 5 6 10 10 6 7 9 8 3 11 16 8 5 6 6 nan
nan 6 8 8 8 9 9 13 25 21 13 8 6 7 5 11 12 9 6 8 7 8 7 10 11 9 6 7 3 10 10 6 11 6 6 10 6 8 8 18 14 8 6 5 nan
nan 7 8 9 9 9 16 26 22 12 9 5 3 6 10 10 10 11 8 9 7 8 11 10 11 5 5 7 7 9 7 9 12 10 6 5 6 7 8 8 15 14 7 8 nan
nan 6 7 9 9 12 21 18 4 8 10 7 5 4 7 10 9 10 11 9 8 7 9 7 10 9 7 3 5 7 7 8 11 12 9 7 7 7 8 5 7 15 16 9 nan
nan 7 7 10 10 21 16 7 9 3 11 12 7 7 9 13 8 9 10 7 9 7 3 10 10 13 8 8 10 6 6 8 12 11 5 11 8 10 7 8 8 7 13 13 nan
nan 8 8 9 23 22 8 5 4 9 13 11 15 8 13 9 8 10 6 8 8 8 9 6 6 11 10 7 9 10 8 7 10 9 5 7 11 12 7 8 9 6 8 9 nan
nan 8 7 22 24 9 10 7 9 12 6 14 9 11 14 7 11 13 6 6 8 10 9 2 10 8 8 9 10 6 12 4 9 8 10 6 9 9 14 8 8 8 6 7 nan
nan 9 15 22 14 7 3 5 14 12 7 14 9 10 12 7 8 11 6 8 11 7 8 7 11 12 10 13 11 12 17 9 4 6 9 6 12 9 11 12 11 10 7 8 nan
nan 13 18 15 11 5 3 14 12 9 10 10 11 8 6 6 7 10 9 6 9 11 8 11 9 10 8 11 6 11 8 10 10 8 10 14 7 7 8 8 12 13 11 7 nan
nan 19 18 9 7 8 13 13 11 5 8 13 11 10 8 9 8 9 8 8 6 6 7 15 11 11 10 5 9 6 6 7 7 12 8 10 8 9 8 9 8 11 15 13 nan
nan 31 21 2 5 9 14 12 8 6 6 10 12 11 11 7 10 9 6 8 7 7 11 7 8 13 14 14 8 5 7 8 11 7 10 8 6 9 8 10 12 12 19 16 nan
nan 25 10 16 10 6 12 9 10 6 5 9 13 10 10 9 10 10 9 9 13 7 6 4 7 11 11 12 9 10 9 8 5 9 12 7 7 11 13 11 6 10 20 18 nan
nan 12 11 16 10 7 10 7 8 4 9 13 11 7 9 13 12 10 10 8 14 11 8 6 10 8 12 8 7 15 8 7 11 13 6 9 11 11 7 5 5 8 12 13 nan
nan 11 15 9 5 10 12 8 7 6 8 9 11 10 8 11 10 8 7 10 10 12 13 9 8 8 11 10 10 8 11 13 14 9 11 9 9 12 7 6 5 5 7 12 nan
nan 8 10 11 9 9 10 9 6 8 8 12 10 8 9 8 9 12 11 8 9 7 5 10 9 12 7 4 12 14 10 9 9 8 8 12 8 13 12 9 8 7 9 18 nan
nan 9 9 13 8 8 9 10 10 8 6 12 11 11 12 9 8 10 8 10 10 11 13 9 6 6 4 11 12 9 9 9 7 14 12 4 9 6 11 14 11 10 10 17 nan
nan 9 11 9 12 8 9 11 10 12 11 11 11 10 10 7 8 11 10 13 11 10 9 12 14 12 9 8 8 5 8 8 9 8 12 4 9 5 8 12 9 9 13 13 nan
nan 12 9 4 8 9 10 10 9 12 11 7 16 13 8 7 9 9 11 8 12 10 7 9 10 9 10 10 10 8 10 9 6 8 4 9 10 9 8 8 12 12 11 11 nan
nan 8 12 11 8 12 11 9 7 11 10 10 9 9 14 10 8 7 7 9 9 7 7 10 13 10 8 9 9 11 12 11 7 8 9 8 9 12 10 10 12 14 9 10 nan
nan nan nan nan nan nan nan nan nan nan nan nan nan nan nan nan nan nan nan nan nan nan nan nan nan nan nan nan nan nan nan nan nan nan nan nan nan nan nan nan nan nan nan nan nan
CAPE
4 2 2 1 0 0 0 0 0 0 0 2 2 2 2 0 0 0 0 0 0 0 0 0 0 0 0 4 18 0 75 24 44 75 104 151 95 95 77 3 51 74 61 0 0
1 1 2 2 2 4 2 0 1 1 0 0 1 2 2 1 0 0 0 0 0 0 0 0 0 0 0 197 59 1 0 11 23 74 23 92 227 31 27 43 70 67 4 0 0
0 0 1 1 2 4 3 2 2 0 0 1 1 1 0 0 0 0 0 0 0 0 0 0 0 0 16 404 194 89 0 50 77 66 90 97 76 38 67 31 21 0 0 0 0
1 1 0 0 1 0 0 2 2 0 0 1 2 1 0 0 0 0 0 0 0 0 0 0 0 0 586 273 160 137 74 47 33 47 63 106 60 56 59 29 23 0 20 0 0
2 1 1 2 1 0 1 1 1 1 1 0 2 1 0 0 0 0 16 0 0 0 0 0 0 0 460 387 319 73 86 37 5 10 74 168 193 187 65 28 26 0 17 0 0
1 0 4 2 1 1 0 0 0 2 1 2 2 0 0 0 0 0 0 0 0 0 0 0 0 0 459 364 284 242 0 94 51 29 165 202 138 67 4 19 40 23 1 4 6
1 1 1 1 1 0 0 0 2 2 2 1 1 0 0 0 0 0 0 0 0 0 0 0 0 0 426 405 286 153 116 190 148 59 107 87 77 72 189 22 31 29 12 12 113
2 2 3 2 1 1 2 2 3 1 0 1 1 0 0 0 0 0 0 0 0 0 0 0 0 0 151 20 75 287 131 120 162 107 35 50 39 149 182 58 41 31 59 105 206
5 3 3 1 0 0 3 2 0 0 0 0 0 0 0 0 0 0 0 0 0 0 0 0 0 92 128 28 23 5 20 54 254 192 91 14 5 38 159 107 40 56 92 142 178
5 4 0 0 0 0 1 0 0 0 0 0 0 0 0 0 0 0 0 0 0 0 0 0 0 7 0 26 17 5 0 0 28 387 74 1 3 24 121 165 165 45 49 105 90
4 4 0 0 0 0 0 0 0 0 0 0 0 0 0 0 0 0 0 0 0 0 0 0 0 0 0 124 83 80 0 26 122 602 341 27 0 10 76 83 182 137 45 128 95
3 3 0 0 0 0 0 0 0 0 0 0 0 0 0 0 0 0 0 0 0 0 0 0 0 0 0 0 0 65 25 44 48 570 527 329 169 31 83 26 96 198 177 42 161
2 3 1 0 1 0 0 0 0 0 0 0 0 0 0 0 0 0 0 0 0 0 0 0 0 0 0 0 42 66 91 34 40 226 394 271 148 216 118 65 27 130 155 232 50
2 3 0 0 0 0 0 0 0 0 0 0 0 0 0 0 0 0 0 0 0 0 0 0 0 0 0 0 0 1 68 96 498 310 39 227 37 65 95 128 72 37 53 96 200
1 2 0 3 0 0 0 0 0 0 0 0 0 0 0 0 0 0 0 0 0 0 0 0 0 0 0 0 0 0 49 124 543 156 215 255 127 36 29 90 47 24 4 46 103
0 1 1 0 0 0 0 0 0 0 0 0 0 0 0 0 0 0 0 0 0 0 0 0 0 0 0 0 5 38 31 28 0 23 14 41 220 24 71 51 37 29 1 2 87
0 0 0 0 0 0 0 0 0 0 0 0 0 0 0 0 0 0 0 0 0 0 0 0 0 0 0 0 0 0 0 0 48 43 6 0 219 93 176 293 251 170 1 3 35
0 0 0 0 0 0 0 0 0 0 0 0 0 0 0 0 0 0 0 0 0 0 0 0 0 0 0 0 0 0 0 0 0 0 0 2 15 85 42 144 434 279 105 8 11
0 0 0 0 0 0 0 0 0 0 0 0 0 0 0 0 0 0 0 0 0 0 0 0 0 0 0 0 0 0 0 0 0 0 0 0 187 115 122 17 67 112 42 1 29
0 0 0 0 0 0 0 0 0 0 0 0 0 0 0 0 0 0 0 0 0 0 0 0 0 0 0 0 0 0 0 0 0 0 1 12 39 52 0 0 0 0 72 34 19
0 0 0 0 0 0 0 0 0 0 0 0 0 0 0 0 0 0 0 0 0 0 0 0 0 0 0 1 0 0 2 0 0 0 0 3 4 4 5 0 0 0 28 232 6
0 0 0 0 0 0 0 0 0 0 0 0 0 0 0 0 0 0 0 0 0 0 0 0 0 0 0 0 0 0 0 0 0 15 0 0 1 1 3 0 0 0 136 304 11
0 0 0 0 0 0 0 0 0 0 0 0 0 0 0 0 0 0 0 0 0 0 0 0 0 0 0 0 0 0 0 0 0 0 0 0 0 0 38 15 219 433 398 252 51
0 0 0 0 0 0 0 0 0 0 0 0 0 0 0 0 0 0 0 0 0 0 5 0 0 0 0 0 0 0 1 0 0 0 0 0 0 2 162 499 469 343 146 282 326
0 0 0 0 0 0 0 0 0 0 0 0 0 0 0 0 0 0 0 0 0 148 0 0 0 0 0 1 0 2 8 0 0 0 30 0 0 0 7 315 373 334 139 324 420
0 0 0 0 0 0 0 0 0 0 0 0 0 0 0 0 0 0 0 0 0 0 0 0 0 0 11 0 0 0 0 4 3 0 0 0 0 0 0 220 206 260 56 144 170
0 0 0 0 0 0 0 0 0 0 0 0 0 0 0 0 0 0 0 0 0 0 0 0 4 0 5 2 4 0 0 0 0 5 0 0 0 22 0 6 122 151 242 30 114